Location: Aiyede
(8.4833°N, 4.4500°E)
Time: 14:05:30
(UTC+00:00)

Envisat - Pass Details

Date: 02 December 2020
Orbit: 764 x 766 km, 98.1° (Epoch: 18 January)

Event Time Altitude Azimuth Distance (km) Brightness Sun altitude
Rises 04:51:25 0° 23° (NNE) 3,218 6.3 -12.4°
Reaches altitude 10° 04:53:49 10° 29° (NNE) 2,293 5.6 -11.9°
Maximum altitude 04:58:38 45° 101° (ESE) 1,039 4.3 -10.8°
Drops below altitude 10° 05:03:26 10° 173° (S) 2,294 5.9 -9.7°
Sets 05:05:49 0° 179° (S) 3,220 6.5 -9.1°
